Location: Newark
(17.9939°S, 31.0481°E)
Time: 16:47:07
(UTC+00:00)

Courier 1B - Pass Details

Date: 15 November 2019
Orbit: 963 x 1209 km, 28.3° (Epoch: 06 December)

Event Time Altitude Azimuth Distance (km) Brightness Sun altitude
Rises 17:33:10 0° 269° (W) 4,006 11.8 -19.1°
Reaches altitude 10° 17:36:05 10° 262° (W) 3,076 11.1 -19.7°
Maximum altitude 17:43:23 45° 191° (S) 1,578 8.8 -21.3°
Enters shadow 17:50:48 10° 120° (ESE) 3,123 9.8 -22.8°
